Location: Azat
(46.0765°N, 1.7600°E)
Time: 12:10:49
(UTC+00:00)

Cosmos 1953 Rocket - Pass Details

Date: 09 April 2020
Orbit: 603 x 635 km, 82.5° (Epoch: 05 June)

Event Time Altitude Azimuth Distance (km) Brightness Sun altitude
Rises 19:25:59 0° 350° (N) 2,938 7.5 -9.6°
Reaches altitude 10° 19:28:14 10° 351° (N) 2,028 6.7 -10.0°
Maximum altitude 19:32:45 90° 285° (WNW) 642 3.6 -10.7°
Drops below altitude 10° 19:37:14 10° 173° (S) 2,017 5.9 -11.4°
Sets 19:39:28 0° 173° (S) 2,920 6.7 -11.8°
